Hourly Data Report for September 09, 2017

All times are specified in Local Standard Time (LST). Add 1 hour to adjust for Daylight Saving Time where and when it is observed.

RANKIN INLET A
NUNAVUT

62°48'38.000" N
92°06'53.000" W
32.30 m
2303405
71083
YRT

Download Data

Hourly Data (September 2017)
Hourly Data Report for September 9, 2017
Temp Definition
°C
Dew Point Temp Definition
°C
Rel Hum Definition
%
Wind Dir Definition
10's deg

Wind Spd Definition
km/h
Visibility Definition
km
Stn Press Definition
kPa
Hmdx Definition


Wind Chill Definition


Weather Definition


TIME
00:00 Legend Double Dagger 12.1 7.9 75 27 30 24.1 99.15     Mainly Clear
01:00 Legend Double Dagger 11.2 7.4 77 25 31 24.1 99.17     LegendNANA
02:00 Legend Double Dagger 10.8 7.6 81 26 32 24.1 99.21     LegendNANA
03:00 Legend Double Dagger 10.7 7.2 79 26 35 24.1 99.25     Mainly Clear
04:00 Legend Double Dagger 11.2 5.6 68 28 46 24.1 99.30     LegendNANA
05:00 Legend Double Dagger 10.0 4.8 70 29 44 24.1 99.41     LegendNANA
06:00 Legend Double Dagger 7.7 4.8 82 30 45 24.1 99.58     Mostly Cloudy
07:00 Legend Double Dagger 4.9 0.6 74 31 47 24.1 99.74     LegendNANA
08:00 Legend Double Dagger 4.8 0.3 73 32 50 24.1 99.91     LegendNANA
09:00 Legend Double Dagger 5.1 0.5 72 33 49 24.1 100.09     Mostly Cloudy
10:00 Legend Double Dagger 5.5 0.4 69 35 48 24.1 100.26     LegendNANA
11:00 Legend Double Dagger 5.8 -0.1 65 33 45 24.1 100.44     LegendNANA
12:00 Legend Double Dagger 7.1 -0.1 60 34 39 24.1 100.56     Mostly Cloudy
13:00 Legend Double Dagger 7.9 -1.7 51 34 39 24.1 100.71     LegendNANA
14:00 Legend Double Dagger 7.8 -2.7 47 33 44 24.1 100.80     LegendNANA
15:00 Legend Double Dagger 8.1 -0.9 53 35 38 24.1 100.90     Mainly Clear
16:00 Legend Double Dagger 8.0 -2.3 48 34 32 24.1 101.02     LegendNANA
17:00 Legend Double Dagger 7.3 -2.1 51 35 37 24.1 101.09     LegendNANA
18:00 Legend Double Dagger 6.0 -1.6 58 34 31 24.1 101.23     Mainly Clear
19:00 Legend Double Dagger 4.5 -1.2 66 34 18 24.1 101.35     LegendNANA
20:00 Legend Double Dagger 3.4 -0.9 73 34 18 24.1 101.45     LegendNANA
21:00 Legend Double Dagger 2.8 -0.6 79 34 14 24.1 101.52     Mainly Clear
22:00 Legend Double Dagger 1.9 -0.9 82 35 13 24.1 101.60     LegendNANA
23:00 Legend Double Dagger 2.0 -1.1 80 1 13 24.1 101.69     LegendNANA

Notes on Data Quality.

Legend

  • E = Estimated
  • M = Missing
  • NA = Not Available
  • ‡ = Partner data that is not subject to review by the National Climate Archives
Date modified: